Showing default

HULIANWANG DIGUI-17, 62977

Orbit data source: Space-Track

HULIANWANG DIGUI-17, 62977 is a payload satellite owned by Zhongguo Xingwang (CN) in LEO that was launched on Tue, 11 Feb 2025 UTC via a CHANG ZHENG 8A launch vehicle from the Wenchang Satellite Launch Center (WSC). Payload-class satellites include a variety of spacecraft equipped with specific instruments for various scientific and technological missions. These include communications satellites like Starlink; space stations such as the ISS; scientific satellites like the Hubble; Earth observation satellites from companies like Planet Labs, Umbra, and HawkEye 360; GPS; miniature CubeSats for education and research; and military/defense satellites.

Loading next visibility...
Identifier
62977, 2025-030G
Orbit
LEO
Country
Flag of CNCN / PRC
Related business
Manufacturer
CAST
Mission
Operational Civil Communications
Bus & Motor
XINGWANG C, Unknown motor
Mass
~700 kg wet, ~700 kg dry
Launch date (UTC)
2025-02-11 (1 year ago)
Launch vehicle
CHANG ZHENG 8A
Launch site
Wenchang Satellite Launch Center (WSC)
Object type
Payload
Rocket body
Debris
Shape & HBR
Box + 2 Pan, 2.0 m
Radar Cross Section
5.935 m², Large (>1 m²)

Expand to show TLE details & history
Last TLE update: 15 hours ago

TLE from 15 hours ago
0 HULIANWANG DIGUI-17
1 62977U 25030G   26168.71146473 -.00000081  00000-0  92530-4 0  9990
2 62977  50.0053 233.7124 0001095 177.7350 182.3527 13.29326665 65937
Epoch: 2026-06-17T17:04Z
TLE epoch observation values (Epoch: 2026-06-17T17:04:30.552Z)
Latitude
-0.00005°
Longitude
71.61984°
Altitude
1,150.634 km
Speed
7.278 km/s
True Right ascension
15h 34m 50s
True Declination
0° 00' 00"
Sunlit
Object was in full shadow at epoch
Visualization orbit readout
Latitude
Unknown
Longitude
Unknown
Altitude
Unknown
Speed
Unknown
Apparent Right ascension
Unknown
Apparent Declination
Unknown
Sunlit
N/A
Visualization observer readout
Local Sidereal Time
18:46:51
Azimuth
Unknown
Elevation
Unknown
Doppler factor
Unknown
Orbital elements
Apogee altitude
1,150.833 km
Perigee altitude
1,149.184 km
Semi-major axis
7,528.146 km
Eccentricity
0.00011
Inclination
50.0053°
RAAN
233.7124°
Arg. of periapsis
177.735°
True anomaly
182.35218°
Mean anomaly
182.3527°
Eccentric anomaly
182.35244°
Mean motion
3.32285 °/min
Orbital period
108.34 mins
BSTAR
0.00009253
Loading maneuver chart data...
Computing Atmospheric mass density...
Loading historical data...
Loading historical data...
Loading historical data...
Loading historical data...
Loading historical data...
Loading historical data...
Loading historical data...

Documentation

Showing up to 5 results
|